Weather History for Frankfurt / M-Flughafen, Germany

Change the Weather History Date:

Friday, June 21, 2013

  Actual Average Record
Temperature  
Mean Temperature 66 °F -  
Max Temperature 73 °F 74 °F - ()
Min Temperature 59 °F 55 °F - ()
Cooling Degree Days 1    
Growing Degree Days 16 (Base 50)    
Moisture  
Dew Point 56 °F    
Average Humidity 70    
Maximum Humidity 100    
Minimum Humidity 40    
Precipitation  
Precipitation 0.00 in - - ()
Sea Level Pressure  
Sea Level Pressure 29.97 in    
Wind  
Wind Speed 12 mph ()    
Max Wind Speed 21 mph    
Max Gust Speed 30 mph    
Visibility 7.0 miles    
Events Rain , Thunderstorm    
T = Trace of Precipitation, MM = Missing Value Source: Averaged Metar Reports

Daily Weather History Graph

Daily Weather History Graph

Search for Another Location

Airport:

Trip Planner

Search our weather history database for the weather conditions in past years. The results will help you decide how hot, cold, wet, or windy it might be!

Date:

Astronomy

Jun. 21, 2013 Rise Set
Actual Time 5:16 AM CEST 9:38 PM CEST
Civil Twilight 4:31 AM CEST 10:23 PM CEST
Nautical Twilight 3:25 AM CEST 11:29 PM CEST
Astronomical Twilight 1:59 AM CEST 12:55 AM CEST
Moon 7:22 PM CEST (6/21) 3:28 AM CEST (6/21)
Length of Visible Light 17h 52m
Length of Day
16h 22m
Waxing Gibbous, 94% of the Moon is Illuminated
Jun 21
Waxing Gibbous
Jun 23
Full
Jun 30
Last Quarter
Jul 8
New
Jul 16
First Quarter

Hourly Weather History & Observations

Time (CEST) Temp. Dew Point Humidity Pressure Visibility Wind Dir Wind Speed Gust Speed Precip Events Conditions
12:00 AM 61 °F 59 °F 89% 29.89 in 9 mi NW 13.4 mph - - Rain , Thunderstorm Thunderstorms and Rain
12:20 AM 62.6 °F 59.0 °F 88% 29.89 in 6.2 mi WSW 5.8 mph - N/A Rain Rain
12:50 AM 60.8 °F 60.8 °F 100% 29.92 in 6.2 mi South 8.1 mph - N/A Rain Light Rain
1:00 AM 61 °F 59 °F 91% 29.91 in 25 mi South 6.7 mph - - Rain Light Rain
1:20 AM 60.8 °F 60.8 °F 100% 29.92 in 6.2 mi SSW 11.5 mph - N/A   Mostly Cloudy
1:50 AM 60.8 °F 60.8 °F 100% 29.92 in 6.2 mi SSW 9.2 mph - N/A   Mostly Cloudy
2:00 AM 61 °F 59 °F 91% 29.93 in 25 mi SSW 8.9 mph - - Rain Light Rain
2:20 AM 60.8 °F 60.8 °F 100% 29.92 in 6.2 mi South 13.8 mph - N/A   Mostly Cloudy
2:50 AM 60.8 °F 60.8 °F 100% 29.89 in 6.2 mi SSW 9.2 mph - N/A Rain Light Rain
3:00 AM 61 °F 59 °F 92% 29.91 in 16 mi SSW 8.9 mph - - Rain Light Rain
3:20 AM 60.8 °F 60.8 °F 100% 29.92 in 6.2 mi South 11.5 mph - N/A   Mostly Cloudy
3:50 AM 60.8 °F 60.8 °F 100% 29.89 in 6.2 mi South 10.4 mph - N/A   Mostly Cloudy
4:00 AM 61 °F 59 °F 92% 29.91 in 16 mi South 11.2 mph - - Rain Light Rain
4:20 AM 60.8 °F 60.8 °F 100% 29.92 in 6.2 mi South 10.4 mph - N/A   Mostly Cloudy
4:50 AM 60.8 °F 60.8 °F 100% 29.92 in 6.2 mi South 12.7 mph - N/A   Mostly Cloudy
5:20 AM 60.8 °F 59.0 °F 94% 29.95 in 6.2 mi South 11.5 mph 23.0 mph N/A   Mostly Cloudy
5:50 AM 60.8 °F 57.2 °F 88% 29.95 in 6.2 mi SSW 12.7 mph - N/A   Scattered Clouds
6:00 AM 60 °F 57 °F 87% 29.95 in 19 mi SSW 13.4 mph - -   Scattered Clouds
6:20 AM 60.8 °F 57.2 °F 88% 29.95 in 6.2 mi SSW 9.2 mph - N/A   Scattered Clouds
6:50 AM 60.8 °F 57.2 °F 88% 29.95 in 6.2 mi SSW 9.2 mph - N/A   Partly Cloudy
7:00 AM 61 °F 56 °F 79% 29.94 in 31 mi SSW 8.9 mph - -   Scattered Clouds
7:20 AM 60.8 °F 57.2 °F 88% 29.95 in 6.2 mi South 8.1 mph - N/A   Partly Cloudy
7:50 AM 62.6 °F 57.2 °F 82% 29.95 in 6.2 mi South 10.4 mph - N/A   Mostly Cloudy
8:00 AM 62 °F 57 °F 80% 29.95 in 31 mi South 11.2 mph - -   Partly Cloudy
8:20 AM 62.6 °F 57.2 °F 82% 29.95 in 6.2 mi South 11.5 mph - N/A   Mostly Cloudy
8:50 AM 62.6 °F 57.2 °F 82% 29.95 in 6.2 mi SSW 13.8 mph - N/A Rain Light Rain
9:00 AM 63 °F 57 °F 76% 29.94 in 31 mi SSW 13.4 mph - - Rain Light Rain
9:20 AM 64.4 °F 55.4 °F 73% 29.95 in 6.2 mi SSW 16.1 mph 27.6 mph N/A   Partly Cloudy
9:50 AM 66.2 °F 55.4 °F 68% 29.95 in 6.2 mi SSW 20.7 mph - N/A   Scattered Clouds
10:00 AM 65 °F 56 °F 64% 29.95 in 37 mi SSW 20.1 mph - - Rain Light Rain
10:20 AM 66.2 °F 55.4 °F 68% 29.95 in 6.2 mi SW 16.1 mph - N/A   Scattered Clouds
10:50 AM 66.2 °F 57.2 °F 73% 29.95 in 6.2 mi SSW 15.0 mph - N/A   Scattered Clouds
11:20 AM 68.0 °F 55.4 °F 64% 29.98 in 6.2 mi SSW 17.3 mph - N/A   Mostly Cloudy
11:50 AM 68.0 °F 55.4 °F 64% 29.98 in 6.2 mi SW 15.0 mph - N/A   Scattered Clouds
12:00 PM 68 °F 55 °F 53% 29.96 in 37 mi SW 15.7 mph - -   Mostly Cloudy
12:20 PM 69.8 °F 55.4 °F 60% 29.98 in 6.2 mi SW 19.6 mph - N/A   Scattered Clouds
12:50 PM 71.6 °F 55.4 °F 57% 29.98 in 6.2 mi SW 19.6 mph - N/A   Scattered Clouds
1:00 PM 71 °F 55 °F 47% 29.96 in 37 mi SW 20.1 mph - -   Mostly Cloudy
1:20 PM 71.6 °F 51.8 °F 50% 29.95 in 6.2 mi SSW 18.4 mph - N/A   Scattered Clouds
1:50 PM 73.4 °F 53.6 °F 50% 29.98 in 6.2 mi SW 17.3 mph 29.9 mph N/A   Scattered Clouds
2:00 PM 73 °F 55 °F 43% 29.96 in 37 mi SW 17.9 mph - -   Partly Cloudy
2:20 PM 71.6 °F 55.4 °F 57% 29.98 in 6.2 mi SW 19.6 mph - N/A   Scattered Clouds
2:50 PM 73.4 °F 57.2 °F 57% 29.98 in 6.2 mi WSW 17.3 mph - N/A   Scattered Clouds
3:00 PM 73 °F 57 °F 47% 29.96 in 37 mi WSW 17.9 mph - -   Partly Cloudy
3:20 PM 71.6 °F 55.4 °F 57% 29.98 in 6.2 mi SW 17.3 mph - N/A   Scattered Clouds
3:50 PM 68.0 °F 55.4 °F 64% 29.98 in 6.2 mi WSW 16.1 mph - N/A   Scattered Clouds
4:00 PM 68 °F 56 °F 57% 29.99 in 37 mi WSW 15.7 mph - - Rain Light Rain Showers
4:20 PM 69.8 °F 55.4 °F 60% 29.98 in 6.2 mi SW 16.1 mph - N/A   Scattered Clouds
4:50 PM 71.6 °F 55.4 °F 57% 29.98 in 6.2 mi SW 13.8 mph - N/A   Scattered Clouds
5:20 PM 73.4 °F 53.6 °F 50% 29.98 in 6.2 mi SSW 20.7 mph - N/A   Scattered Clouds
5:50 PM 69.8 °F 53.6 °F 56% 29.98 in 6.2 mi SW 19.6 mph - N/A   Scattered Clouds
6:00 PM 71 °F 53 °F 42% 29.98 in 37 mi SW 20.1 mph - -   Partly Cloudy
6:20 PM 71.6 °F 51.8 °F 50% 29.98 in 6.2 mi SW 18.4 mph - N/A   Scattered Clouds
6:50 PM 71.6 °F 51.8 °F 50% 30.01 in 6.2 mi SW 19.6 mph - N/A   Scattered Clouds
7:00 PM 71 °F 52 °F 40% 29.99 in 37 mi SW 20.1 mph - -   Partly Cloudy
7:20 PM 69.8 °F 51.8 °F 53% 30.01 in 6.2 mi SW 15.0 mph - N/A   Partly Cloudy
7:50 PM 69.8 °F 51.8 °F 53% 30.01 in 6.2 mi WSW 17.3 mph 29.9 mph N/A   Partly Cloudy
8:00 PM 70 °F 52 °F 42% 30.01 in 31 mi WSW 17.9 mph - -   Partly Cloudy
8:20 PM 68.0 °F 50.0 °F 52% 30.01 in 6.2 mi WSW 18.4 mph - N/A   Partly Cloudy
8:50 PM 68.0 °F 51.8 °F 56% 30.04 in 6.2 mi WSW 13.8 mph - N/A   Partly Cloudy
9:00 PM 67 °F 53 °F 50% 30.03 in 37 mi WSW 13.4 mph - -   Scattered Clouds
9:20 PM 66.2 °F 51.8 °F 60% 30.04 in - WSW 15.0 mph - N/A   Clear
9:50 PM 64.4 °F 50.0 °F 59% 30.04 in - WSW 9.2 mph - N/A   Clear
10:00 PM 64 °F 51 °F 53% 30.04 in 37 mi WSW 8.9 mph - -   Scattered Clouds
10:20 PM 64.4 °F 51.8 °F 64% 30.04 in - SSW 10.4 mph - N/A   Clear
10:50 PM 62.6 °F 51.8 °F 68% 30.04 in - SSW 9.2 mph - N/A   Clear
11:20 PM 62.6 °F 51.8 °F 68% 30.06 in - South 6.9 mph - N/A   Clear
11:50 PM 60.8 °F 51.8 °F 72% 30.06 in - SSW 6.9 mph - N/A   Clear